Погода в Арте

Греция     39°09′36″N   20°58′57″E
темп.,
°C
ветер,
м/с
пор.,
м/с
влажн.,
%
обл.,
%
осадки,
мм/ч
давл.,
гПа
погр.,
м
7 марта, вс
вс723:00+7ссв23901 0.0 102436
02:00+6ссв23870 0.0 102430
05:00+6св33880 0.0 102440
08:00+6св33840 0.0 102484
11:00+14в12569 0.0 1024780
14:00+15юз324912 0.0 10221531
17:00+13ююз236843 0.6 1021770
20:00+8в119123 0.8 102122
8 марта, пн
пн823:00+7всв12901 0.0 102122
02:00+8св118729 0.0 102025
05:00+6св119247 0.1 101822
08:00+8всв118749 0.1 101852
11:00+13ююв016882 0.1 1018788
14:00+14юз215791 0.1 10161159
17:00+13ююз2270100 0.1 1014613
20:00+8в119288 0.1 101622
9 марта, вт
вт923:00+7св229124 0.0 101623
02:00+7св228812 0.0 101623
05:00+6св22840 0.0 101524
08:00+8св22780 0.0 101571
11:00+16ю11530 0.0 1015862
14:00+16юз32490 0.0 10151289
17:00+14ююз33610 0.0 1013589
20:00+9всв118542 0.0 101522
10 марта, ср
ср1023:00+8всв1181100 0.0 101622
02:00+7св127897 0.0 101522
05:00+6св128230 0.0 101522
08:00+8св117658 0.0 101452
11:00+10вюв127299 0.0 1015315
14:00+8юв2397100 5.6 1015207
17:00+10всв0194100 2.3 1015167
20:00+9с1195100 2.4 101722
11 марта, чт
чт1123:00+9св129295 0.1 101942
02:00+8ссв228793 0.2 102146
05:00+5св338510 0.0 102163
08:00+6св33825 0.0 102398
11:00+14юв11560 0.0 1025772
14:00+15юз32470 0.0 10251459
17:00+13ююз33610 0.0 1024692
20:00+8юв11880 0.0 102522